Location: Ernez
(36.4595°N, 29.8755°E)
Time: 09:44:13
(UTC+00:00)

YAOGAN 1 - Pass Details

Date: 13 November 2025
Orbit: 605 x 607 km, 97.8° (Epoch: 05 December)

Event Time Altitude Azimuth Distance (km) Brightness Sun altitude
Rises 17:08:23 0° 188° (S) 2,849 6.1 -27.2°
Reaches altitude 10° 17:10:43 10° 197° (SSW) 1,950 5.3 -27.7°
Maximum altitude 17:14:33 33° 263° (W) 1,022 4.2 -28.5°
Drops below altitude 10° 17:18:25 10° 328° (NNW) 1,962 5.4 -29.2°
Sets 17:20:46 0° 338° (NNW) 2,870 6.2 -29.7°
